This is the latest recevied weather packets stored in our database for station/object DM2KB-13. If no packets are shown the sender has not sent any weather packets the latest 1 day(s).
| Time | Temp. | Humidity | Pressure | Rain* | Wind** | Luminosity | Snow |
|---|---|---|---|---|---|---|---|
| 1777978499 | 11.11° C | 98% | 1008.8 hPa | 0 mm | 0.89 m/s, 45° | 127 W/m² | - |
| 1777978199 | 11.11° C | 98% | 1008.8 hPa | 0 mm | 0.89 m/s, 40° | 107 W/m² | - |
| 1777977899 | 11.11° C | 98% | 1008.8 hPa | 0 mm | 0.45 m/s, 22° | 91 W/m² | - |
| 1777977598 | 11.11° C | 98% | 1008.9 hPa | 0 mm | 0.45 m/s, 63° | 62 W/m² | - |
| 1777977298 | 11.11° C | 98% | 1009 hPa | 0 mm | 0.89 m/s, 342° | 56 W/m² | - |
| 1777976998 | 11.11° C | 98% | 1009 hPa | 0 mm | 0.89 m/s, 46° | 62 W/m² | - |
| 1777976697 | 11.11° C | 98% | 1009 hPa | 0 mm | 0.89 m/s, 46° | 69 W/m² | - |
| 1777976397 | 11.11° C | 98% | 1009 hPa | 0 mm | 0.45 m/s, 21° | 72 W/m² | - |
| 1777976097 | 11.11° C | 98% | 1009 hPa | 0 mm | 0 m/s | 77 W/m² | - |
| 1777975797 | 11.11° C | 98% | 1009.1 hPa | 0 mm | 0.45 m/s, 37° | 72 W/m² | - |
| 1777975496 | 11.11° C | 98% | 1009.1 hPa | 0 mm | 0.89 m/s, 23° | 88 W/m² | - |
| 1777975196 | 11.11° C | 98% | 1009 hPa | 0 mm | 0.89 m/s, 31° | 111 W/m² | - |
| 1777974896 | 11.11° C | 98% | 1009 hPa | 0 mm | 0.89 m/s, 60° | 128 W/m² | - |
| 1777974595 | 11.11° C | 98% | 1009 hPa | 0 mm | 0.45 m/s, 14° | 107 W/m² | - |
| 1777974295 | 11.11° C | 98% | 1008.9 hPa | 0 mm | 0.45 m/s, 9° | 102 W/m² | - |
| 1777973995 | 11.11° C | 98% | 1009 hPa | 0 mm | 0.45 m/s, 69° | 100 W/m² | - |
| 1777973695 | 11.11° C | 98% | 1009 hPa | 0 mm | 0.45 m/s, 34° | 107 W/m² | - |
| 1777973394 | 11.11° C | 98% | 1009 hPa | 0 mm | 0.89 m/s, 41° | 118 W/m² | - |
| 1777973094 | 11.11° C | 98% | 1009 hPa | 0 mm | 0.89 m/s, 46° | 114 W/m² | - |
| 1777972794 | 11.11° C | 98% | 1009.1 hPa | 0 mm | 0.89 m/s, 29° | 97 W/m² | - |
| 1777972493 | 11.11° C | 98% | 1009 hPa | 0 mm | 0.89 m/s, 58° | 111 W/m² | - |
| 1777972193 | 11.11° C | 98% | 1009 hPa | 0 mm | 0.45 m/s, 7° | 109 W/m² | - |
| 1777971893 | 11.11° C | 98% | 1009 hPa | 0 mm | 0.89 m/s, 21° | 116 W/m² | - |
| 1777971593 | 11.11° C | 98% | 1009 hPa | 0 mm | 0.89 m/s, 46° | 127 W/m² | - |
| 1777971292 | 11.11° C | 98% | 1009 hPa | 0 mm | 0.89 m/s, 23° | 123 W/m² | - |
* Rain latest hour (hover to see other rain measurements)
** Current wind speed in m/s (hover to see current wind gust speed)